CAPE
3723 3950 3285 3325 2922 1920 1678 1722 1855 2039 1750 2027 1369 1513 1128 1210 704 716 647 473 1004 650
3943 3545 3243 3251 3054 2802 1943 2943 1803 1871 1842 1457 1516 1413 1166 456 541 683 1095 754 1245 843
4198 3736 3288 3397 3504 2365 3355 2805 2361 2113 1783 1327 1284 1377 981 663 1034 594 914 789 934 981
4197 4110 3566 3343 3231 2965 2965 2804 2330 2062 1607 1345 1252 1379 989 834 1191 1032 956 587 832 993
4212 4153 4028 3338 3641 3454 3153 3256 2721 1971 1607 1450 1130 1143 906 690 643 777 910 852 987 1068
4086 4009 3894 3867 3250 3472 3308 2791 1939 2079 1719 1556 1125 941 857 1036 900 574 495 712 933 796
3963 3937 3735 3752 3709 3579 3610 2927 2384 2018 1815 1553 1306 941 741 930 1003 819 676 1154 940 898
4119 4082 4000 3670 3865 3526 3887 3256 2599 1969 1912 1724 1251 1002 637 709 1020 997 856 1052 1080 1061
3930 4317 4203 3906 3801 3914 3809 3546 2857 2109 1881 1689 1119 462 107 593 878 897 897 748 956 797
3961 4290 4278 4248 3808 3915 3723 3398 2843 2111 1840 1607 1154 119 0 88 780 813 865 1087 1043 1047
4327 4474 4395 4255 4035 3647 3876 3570 2478 2163 1731 1400 967 0 0 0 385 355 627 855 1072 1205
4648 4691 4545 4456 4089 3992 3728 3169 2431 1692 1342 1094 528 0 0 0 9 158 551 918 1025 1385
4921 4742 4709 4572 4335 4030 3313 2565 2436 1925 1426 801 519 0 0 0 201 300 403 959 1078 729
4686 4856 4860 4385 3774 3428 2779 2360 2177 1662 955 627 468 393 0 0 343 406 700 926 1086 1081
CIN
-18 -2 -13 -12 -7 -22 -23 -35 -87 -49 -56 -12 -57 -45 -96 -77 -110 -82 -17 -17 -9 -32
-10 -14 -7 -15 -29 -10 -47 -21 -109 -81 -63 -78 -74 -63 -106 -195 -171 -120 -21 -7 -7 -13
-2 -17 -11 -16 -18 -39 -16 -22 -64 -83 -82 -120 -81 -79 -94 -90 -42 -117 -69 -42 -11 -20
-2 -6 -14 -7 -16 -43 -33 -38 -41 -80 -131 -125 -108 -63 -83 -63 -19 -55 -54 -104 -40 -7
-10 -14 -10 -28 -7 -19 -41 -32 -44 -81 -135 -136 -137 -111 -112 -105 -53 -53 -57 -53 -52 -10
-27 -31 -41 -36 -61 -26 -43 -72 -142 -104 -129 -129 -165 -168 -139 -62 -45 -78 -87 -58 -71 -39
-62 -75 -91 -61 -58 -40 -23 -73 -122 -131 -139 -129 -134 -150 -140 -59 -25 -30 -31 -11 -34 -31
-81 -78 -62 -67 -41 -56 -14 -54 -109 -164 -124 -96 -133 -141 -173 -82 -19 -11 -23 -20 -22 -23
-94 -56 -64 -64 -46 -26 -24 -32 -69 -136 -128 -130 -149 -254 -436 -146 -26 -8 -20 -34 -16 -38
-110 -82 -63 -43 -45 -25 -27 -42 -69 -128 -107 -97 -115 -452 0 -342 -24 -7 -9 -9 -12 -12
-77 -65 -55 -39 -34 -41 -22 -27 -92 -89 -98 -108 -168 0 0 0 -85 -88 -28 -12 -11 -16
-42 -20 -20 -23 -35 -21 -15 -45 -83 -136 -158 -162 -272 0 0 0 -291 -126 -13 -7 -10 -10
-17 -8 -9 -18 -5 -8 -42 -83 -57 -101 -135 -220 -267 0 0 0 -136 -66 -57 -8 -27 -21
-17 -6 -2 -14 -37 -66 -96 -94 -83 -108 -192 -246 -220 -109 0 0 -88 -35 -6 -12 -31 -26
Wind_Speed
14 8 8 8 5 6 6 9 14 10 10 8 8 6 8 8 7 7 4 4 3 3
14 14 10 8 8 6 6 3 14 13 11 9 11 9 8 6 7 6 6 4 4 3
16 16 13 10 10 10 6 6 13 14 12 11 8 9 6 5 5 7 6 5 4 6
16 17 16 13 12 13 10 8 13 13 13 12 11 9 7 7 6 8 7 7 5 3
17 17 17 16 14 13 13 9 10 13 13 13 12 10 10 10 7 7 9 9 7 6
19 18 19 18 17 15 14 13 13 14 14 14 14 13 12 11 9 9 9 8 8 7
20 20 19 17 17 16 15 14 14 13 14 14 14 13 12 11 9 8 7 6 6 7
19 18 16 16 16 16 15 15 14 15 14 13 12 11 12 12 12 10 9 8 7 7
18 17 18 16 15 15 15 15 14 15 14 16 11 12 16 13 11 11 10 8 7 7
18 18 18 16 15 15 15 14 14 14 12 13 12 12 13 15 8 8 9 8 8 8
17 17 16 16 15 14 12 13 11 10 10 10 9 12 11 8 7 5 6 9 9 7
16 16 16 15 15 12 10 10 9 9 11 11 9 12 12 10 8 9 11 8 7 6
13 15 15 13 11 9 8 8 8 9 9 9 10 14 15 12 7 10 9 9 10 9
13 13 12 11 9 10 8 7 7 7 6 7 9 8 16 17 10 8 8 3 5 6
Wind_Direction
207 211 211 202 201 190 200 180 165 166 163 172 178 198 161 162 180 170 175 224 250 324
196 206 206 200 210 194 218 158 163 167 167 185 182 192 174 214 183 145 157 204 209 237
194 200 204 199 201 202 203 184 169 173 174 180 194 188 165 217 208 166 167 166 213 198
198 197 202 205 204 190 200 191 169 175 177 183 190 188 177 222 213 183 181 170 187 225
195 198 198 209 202 199 192 179 172 179 185 187 188 181 185 210 212 195 188 192 167 200
198 199 203 201 207 198 195 191 188 184 191 190 190 184 192 205 219 204 202 203 175 178
198 202 203 200 201 205 197 195 193 195 197 195 191 192 193 204 211 221 218 205 184 177
201 202 199 201 201 203 195 199 196 197 199 197 193 189 191 204 211 209 219 209 202 183
195 196 199 199 200 201 200 199 194 201 197 196 199 197 190 198 202 208 213 214 215 224
191 193 193 192 196 196 203 190 200 200 200 203 204 184 198 193 205 210 213 204 218 228
189 187 184 190 194 198 194 197 197 195 198 201 195 164 169 191 221 257 247 218 213 218
179 175 179 188 192 190 197 192 187 191 195 200 190 172 177 178 209 228 233 234 227 212
163 170 179 181 178 176 167 186 197 192 186 191 206 184 182 182 212 221 215 209 223 213
164 168 166 165 167 165 168 184 191 173 163 189 210 200 196 190 210 229 214 228 200 196